Flag for United Kingdom Weather past 2 weeks in Rotherham, England, United Kingdom

Now
54 °F

Cool.


Feels Like: 51 °F
Forecast: 50 / 55 °F
Wind: 14 mph from Southwest

Location: Nottingham Weather Centre

Current Time: Dec 18, 2014 at 10:35:46 AM

Latest Report: Dec 18, 2014 at 10:00 AM


Visibility: 19 mi

Pressure: 29.66 "Hg

Humidity: 88%

Dew point: 51 °F

Location of RotherhamLocation

Historic Weather in Rotherham — Graph

°F

Rotherham temperature yesterday

Maximum temperature yesterday: 53 °F (at 3:00 PM)
Minimum temperature yesterday: 42 °F (at 12:00 AM)
Average temperature yesterday: 50 °F

Past Weeks' High & Low Weather Summary

 TemperatureHumidityPressure
High54 °F (Dec 18, 7:00 AM)100% (Dec 17, 4:00 AM)30.38 "Hg (Dec 17, 4:00 AM)
Low29 °F (Dec 6, 8:00 AM)61% (Dec 7, 2:00 PM)29.12 "Hg (Dec 12, 5:00 AM)
Average40 °F87%29.90 "Hg
* Reported Dec 3 9:00 AM — Dec 18 9:00 AM, Rotherham, Weather by CustomWeather, © 2014

Note: Actual official high and low records may vary slightly from our data, if they occured in-between our weather recording intervals... More about our weather records

Advertising

Rotherham weather history for previous 24 hours

 ConditionsComfort  
Time TempWeatherWind HumidityBarometerVisibility
9:00 AM
Dec 18
54 °FRain showers. Cloudy.13 mph89%29.66 "Hg14 mi
8:00 AM54 °FCool.10 mph88%29.67 "Hg19 mi
7:00 AM54 °FCool.14 mph90%29.67 "Hg19 mi
6:00 AM53 °FCool.14 mph91%29.68 "Hg11 mi
5:00 AM53 °FCool.12 mph92%29.67 "Hg15 mi
4:00 AM52 °FCool.8 mph97%29.68 "Hg11 mi
2:00 AM51 °FCool.9 mph98%29.70 "Hg16 mi
1:00 AM51 °FCool.10 mph98%29.71 "Hg6 mi
12:00 AM51 °FCool.8 mph99%29.70 "Hg14 mi
11:00 PM
Dec 17
50 °FCool.7 mph99%29.70 "Hg11 mi
10:00 PM50 °FFog.8 mph99%29.70 "Hg4 mi
9:00 PM51 °FFog.8 mph100%29.71 "Hg2 mi
8:00 PM51 °FFog.8 mph100%29.71 "Hg2 mi
7:00 PM51 °FFog.9 mph99%29.70 "Hg2 mi
6:00 PM51 °FFog.10 mph97%29.69 "Hg3 mi
5:00 PM52 °FCool.14 mph91%29.67 "Hg18 mi
4:00 PM53 °FCool.14 mph91%29.66 "Hg22 mi
3:00 PM53 °FCool.15 mph88%29.65 "Hg25 mi
2:00 PM52 °FCool.12 mph93%29.64 "Hg22 mi
1:00 PM52 °FCool.12 mph93%29.63 "Hg18 mi
12:00 PM51 °FCool.10 mph95%29.65 "Hg15 mi
11:00 AM50 °FFog.9 mph98%29.65 "Hg4 mi
10:00 AM51 °FCool.12 mph96%29.63 "Hg8 mi
Weather by CustomWeather, © 2014

See weather overviewHow to use our weather pages